星链-1277 (STARLINK-1277 )

导读 | 星芒AI

STARLINK-1277 是 SpaceX Starlink 卫星互联网项目中的一个低轨卫星,属于第 12 批部署的星链卫星之一。该卫星于 2020 年 11 月 19 日由猎鹰 9 号火箭发射升空,运行在约 550 公里的轨道高度,旨在为全球提供高速互联网服务。与其他 Starlink 卫星一样,STARLINK-1277 采用先进推进系统和激光通信技术,以提高网络效率和减少信号延迟。该卫星在轨运行期间对全球多个地区的网络覆盖起到了关键作用。

基本信息
目录编号:
45369
目录名称:
STARLINK-1277
国际标识:
2020-019K
轨道中心:
EARTH
卫星名称:
星链-1277
卫星全名:
星链-1277 (STARLINK-1277 )
卫星状态:
在轨 (已飞行2051 天)
发射日期:
2020-03-18 UTC
国别 :
美国 (US)
星等 :
--
轨道信息
数据来源 国际轨道数据 AOE轨道数据
星历时间 2025-10-28T21:56:12+0800
20小时前
查看轨道信息
2025-10-24T07:00:00+0800
5天前
查看轨道信息
半长轴 6925.414km 6925.374km
偏心率 0.0001075 0.0001536
轨道倾角 53.055° 53.054°
近地点辐角 111.178° 100.185°
升交点赤经 40.308° 61.057°
平近点角 248.933° 18.862°
近地点 546.534km 546.175km
远地点 548.024km 548.303km
周期 95.593分钟 95.593分钟
每日圈数 15.063789 15.063918
详细信息
固有亮度:
5
最大亮度:
2.5
卫星平台:
Starlink V1.0
覆盖范围:
全球
运营商:
太空探索技术公司
运营商所在国:
美国
制造商(研发单位):
太空探索技术公司
制造商所在国:
美国
使用方式:
暂无
卫星简介
星链(Starlink)计划是由太空探索技术公司(SpaceX)提出的一个巨型低轨卫星互联网星座项目,计划在2019年至2024年间在太空搭建由约1.2万颗卫星组成的“星链”网络,其中1584颗将部署在地球上空550千米处的近地轨道,并从2020年开始工作。该卫星仍在工作。
2D轨道图
3D轨道图
轨道高度分析图
轨道倾角分析图
轨道综合分析图
查看轨道综合分析图